Announcements
NOTE: You can customize the way the weather site looks by clicking the "Customize" button on the menu, make your selection, and then "Save Your Changes"
from: Jan 19 2019 12:00 pm until: Jan 20 2019 6:00 pm Winter Storm Warning level: Moderate
Possible threat to life or property - Responsive action SHOULD be taken soon (within next hour)


Weather Cam 1 more information Weather Cam 1


Weather Cam 2 more information Weather Cam 2


Visit our other weather sites:

Template documentation
and downloads

And another site


Weather Underground History page Text

Daily Summary for January 18, 2019 Units:  English    Metric   Both
« Previous Day
Next Day »
Daily Weekly Monthly Yearly Custom
  Current: High: Low: Average:
Temperature: 32.2 °F TemperatureF °F 24.2 °F 28.5 °F
Dew Point: 12.7 °F DewpointF °F -5.0 °F 7.2 °F
Humidity: 44 % Humidity % 21 % 41 %
Wind Speed: 0.0 mph WindSpeedMPH mph 0.0 mph 0 mph
Wind Gust: 0.0 mph WindSpeedGustMPH mph - -
Wind:Calm - - West
Pressure: 29.55 in PressureIn in 29.50 in -
Precipitation: 0.05 in      
Historical Graphs
 
 
Tabular Data for January 18, 2019
Time Temperature Dew Point Pressure Wind Wind Speed Wind Gust Humidity Rainfall Rate (Hourly)
TemperatureF °F DewpointF °F PressureIn in Calm     Humidity % HourlyPrecipIn in
00:00 25.6 °F 17.8 °F 29.70 in Calm     72 % 0.00 in
00:05 25.5 °F 17.4 °F 29.69 in Calm     71 % 0.00 in
00:15 25.2 °F 16.8 °F 29.69 in Calm     70 % 0.00 in
00:20 25.1 °F 16.4 °F 29.69 in Calm     69 % 0.00 in
00:25 25.0 °F 15.9 °F 29.68 in Calm     68 % 0.00 in
00:30 24.9 °F 15.1 °F 29.68 in Calm     66 % 0.00 in
00:35 24.9 °F 14.8 °F 29.68 in Calm     65 % 0.00 in
00:40 24.8 °F 14.3 °F 29.67 in Calm     64 % 0.00 in
00:45 24.7 °F 14.2 °F 29.67 in Calm     64 % 0.00 in
00:50 24.7 °F 13.9 °F 29.67 in Calm     63 % 0.00 in
00:55 24.6 °F 13.8 °F 29.67 in Calm     63 % 0.00 in
01:00 24.5 °F 13.3 °F 29.67 in Calm     62 % 0.00 in
01:05 24.5 °F 13.0 °F 29.67 in Calm     61 % 0.00 in
01:10 24.5 °F 12.2 °F 29.67 in Calm     59 % 0.00 in
01:15 24.5 °F 11.8 °F 29.66 in Calm     58 % 0.00 in
01:20 24.6 °F 11.5 °F 29.67 in Calm     57 % 0.00 in
01:25 24.6 °F 11.5 °F 29.66 in Calm     57 % 0.00 in
01:30 24.5 °F 11.0 °F 29.66 in Calm     56 % 0.00 in
01:35 24.5 °F 10.6 °F 29.66 in Calm     55 % 0.00 in
01:40 24.5 °F 10.6 °F 29.66 in Calm     55 % 0.00 in
01:45 24.5 °F 10.2 °F 29.66 in Calm     54 % 0.00 in
01:50 24.5 °F 10.2 °F 29.66 in Calm     54 % 0.00 in
01:55 24.5 °F 10.2 °F 29.66 in Calm     54 % 0.00 in
02:00 24.4 °F 10.1 °F 29.66 in Calm     54 % 0.00 in
02:05 24.4 °F 9.7 °F 29.66 in Calm     53 % 0.00 in
02:10 24.4 °F 9.7 °F 29.66 in Calm     53 % 0.00 in
02:15 24.3 °F 9.6 °F 29.65 in Calm     53 % 0.00 in
02:20 24.3 °F 9.6 °F 29.65 in Calm     53 % 0.00 in
02:25 24.3 °F 9.2 °F 29.65 in Calm     52 % 0.00 in
02:35 24.3 °F 8.7 °F 29.65 in Calm     51 % 0.00 in
02:40 24.3 °F 8.7 °F 29.64 in Calm     51 % 0.00 in
02:45 24.2 °F 8.2 °F 29.64 in Calm     50 % 0.00 in
02:50 24.2 °F 8.2 °F 29.64 in Calm     50 % 0.00 in
02:55 24.3 °F 8.3 °F 29.64 in Calm     50 % 0.00 in
03:00 24.3 °F 7.9 °F 29.64 in Calm     49 % 0.00 in
03:05 24.3 °F 7.9 °F 29.63 in Calm     49 % 0.00 in
03:10 24.3 °F 7.4 °F 29.63 in Calm     48 % 0.00 in
03:15 24.3 °F 7.4 °F 29.63 in Calm     48 % 0.00 in
03:20 24.3 °F 6.9 °F 29.62 in Calm     47 % 0.00 in
03:25 24.3 °F 7.4 °F 29.62 in Calm     48 % 0.00 in
03:30 24.3 °F 6.9 °F 29.62 in Calm     47 % 0.00 in
03:35 24.4 °F 7.0 °F 29.61 in Calm     47 % 0.00 in
03:40 24.3 °F 6.9 °F 29.61 in Calm     47 % 0.00 in
03:50 24.4 °F 6.6 °F 29.61 in Calm     46 % 0.00 in
03:55 24.4 °F 6.6 °F 29.60 in Calm     46 % 0.00 in
04:00 24.4 °F 6.6 °F 29.60 in Calm     46 % 0.00 in
04:05 24.4 °F 6.1 °F 29.60 in Calm     45 % 0.00 in
04:10 24.4 °F 6.1 °F 29.60 in Calm     45 % 0.00 in
04:15 24.5 °F 6.2 °F 29.60 in Calm     45 % 0.00 in
04:20 24.5 °F 5.7 °F 29.60 in Calm     44 % 0.00 in
04:25 24.5 °F 5.7 °F 29.60 in Calm     44 % 0.00 in
04:30 24.5 °F 5.7 °F 29.59 in Calm     44 % 0.00 in
04:35 24.5 °F 5.7 °F 29.59 in Calm     44 % 0.00 in
04:40 24.6 °F 5.3 °F 29.59 in Calm     43 % 0.00 in
04:45 24.6 °F 5.3 °F 29.59 in Calm     43 % 0.00 in
04:50 24.6 °F 5.3 °F 29.58 in Calm     43 % 0.00 in
04:55 24.6 °F 4.7 °F 29.58 in Calm     42 % 0.00 in
05:00 24.7 °F 4.8 °F 29.58 in Calm     42 % 0.00 in
05:05 24.7 °F 4.8 °F 29.58 in Calm     42 % 0.00 in
05:10 24.8 °F 4.4 °F 29.58 in Calm     41 % 0.00 in
05:15 24.8 °F 4.4 °F 29.58 in Calm     41 % 0.00 in
05:20 24.9 °F 3.9 °F 29.58 in Calm     40 % 0.00 in
05:25 25.0 °F 4.0 °F 29.58 in Calm     40 % 0.00 in
05:30 25.0 °F 3.5 °F 29.58 in Calm     39 % 0.00 in
05:35 25.1 °F 3.6 °F 29.58 in Calm     39 % 0.00 in
05:40 25.1 °F 3.6 °F 29.58 in Calm     39 % 0.00 in
05:45 25.2 °F 3.7 °F 29.58 in Calm     39 % 0.00 in
05:50 25.2 °F 3.7 °F 29.58 in Calm     39 % 0.00 in
05:55 25.3 °F 3.8 °F 29.58 in Calm     39 % 0.00 in
06:00 25.4 °F 3.8 °F 29.58 in Calm     39 % 0.00 in
06:05 25.4 °F 3.3 °F 29.58 in Calm     38 % 0.00 in
06:10 25.4 °F 3.3 °F 29.58 in Calm     38 % 0.00 in
06:15 25.5 °F 3.4 °F 29.58 in Calm     38 % 0.00 in
06:20 25.5 °F 3.4 °F 29.59 in Calm     38 % 0.00 in
06:25 25.5 °F 3.4 °F 29.58 in Calm     38 % 0.00 in
06:30 25.6 °F 3.5 °F 29.59 in Calm     38 % 0.00 in
06:35 25.7 °F 3.6 °F 29.58 in Calm     38 % 0.00 in
06:40 25.7 °F 3.6 °F 29.58 in Calm     38 % 0.00 in
06:45 25.8 °F 3.1 °F 29.58 in Calm     37 % 0.00 in
06:50 25.8 °F 3.1 °F 29.58 in Calm     37 % 0.00 in
06:55 25.8 °F 3.1 °F 29.58 in Calm     37 % 0.00 in
07:00 25.9 °F 3.2 °F 29.58 in Calm     37 % 0.00 in
07:05 25.9 °F 3.2 °F 29.58 in Calm     37 % 0.00 in
07:15 25.9 °F 3.2 °F 29.58 in Calm     37 % 0.00 in
07:20 26.0 °F 3.2 °F 29.58 in Calm     37 % 0.00 in
07:25 26.0 °F 3.2 °F 29.58 in Calm     37 % 0.00 in
07:30 26.0 °F 3.2 °F 29.58 in Calm     37 % 0.00 in
07:35 26.1 °F 3.3 °F 29.58 in Calm     37 % 0.00 in
07:40 26.1 °F 3.3 °F 29.58 in Calm     37 % 0.00 in
07:45 26.1 °F 3.3 °F 29.57 in Calm     37 % 0.00 in
07:55 26.2 °F 3.4 °F 29.58 in Calm     37 % 0.00 in
08:00 26.3 °F 2.9 °F 29.58 in Calm     36 % 0.00 in
08:05 26.3 °F 2.9 °F 29.58 in Calm     36 % 0.00 in
08:15 26.5 °F 3.1 °F 29.58 in Calm     36 % 0.00 in
08:20 26.5 °F 3.1 °F 29.58 in Calm     36 % 0.00 in
08:30 26.6 °F 2.6 °F 29.58 in Calm     35 % 0.00 in
08:35 26.7 °F 2.7 °F 29.58 in Calm     35 % 0.00 in
08:45 26.9 °F 2.2 °F 29.58 in Calm     34 % 0.00 in
08:50 27.0 °F 2.3 °F 29.59 in Calm     34 % 0.00 in
08:55 27.2 °F 1.8 °F 29.59 in Calm     33 % 0.00 in
09:00 27.3 °F 1.9 °F 29.58 in Calm     33 % 0.00 in
09:05 27.5 °F 2.1 °F 29.58 in Calm     33 % 0.00 in
09:10 27.6 °F 1.5 °F 29.58 in Calm     32 % 0.00 in
09:20 27.9 °F 0.4 °F 29.58 in Calm     30 % 0.00 in
09:30 28.3 °F 0.0 °F 29.57 in Calm     29 % 0.00 in
09:40 28.6 °F -1.2 °F 29.58 in Calm     27 % 0.00 in
09:45 28.7 °F -1.1 °F 29.58 in Calm     27 % 0.00 in
09:55 29.0 °F -2.5 °F 29.58 in Calm     25 % 0.00 in
10:00 29.1 °F -2.4 °F 29.58 in Calm     25 % 0.00 in
10:15 29.5 °F -3.8 °F 29.58 in Calm     23 % 0.00 in
10:20 29.6 °F -3.7 °F 29.59 in Calm     23 % 0.00 in
10:25 29.8 °F -3.6 °F 29.59 in Calm     23 % 0.00 in
10:30 29.9 °F -4.4 °F 29.58 in Calm     22 % 0.00 in
10:35 30.0 °F -4.3 °F 29.58 in Calm     22 % 0.00 in
10:45 30.4 °F -5.0 °F 29.58 in Calm     21 % 0.00 in
10:50 30.5 °F -3.9 °F 29.58 in Calm     22 % 0.00 in
10:55 30.5 °F -3.0 °F 29.58 in Calm     23 % 0.00 in
11:00 30.6 °F -2.9 °F 29.58 in Calm     23 % 0.00 in
11:05 30.7 °F -2.8 °F 29.58 in Calm     23 % 0.00 in
11:10 30.7 °F -2.8 °F 29.58 in Calm     23 % 0.00 in
11:15 30.8 °F -2.7 °F 29.58 in Calm     23 % 0.00 in
11:20 31.0 °F -2.5 °F 29.58 in Calm     23 % 0.00 in
11:25 31.1 °F -2.5 °F 29.57 in Calm     23 % 0.00 in
11:30 31.1 °F -1.6 °F 29.57 in Calm     24 % 0.00 in
11:35 31.2 °F -1.5 °F 29.57 in Calm     24 % 0.00 in
11:40 31.3 °F -1.4 °F 29.56 in Calm     24 % 0.00 in
11:45 31.5 °F -1.2 °F 29.56 in Calm     24 % 0.00 in
11:50 31.6 °F -1.1 °F 29.56 in Calm     24 % 0.00 in
12:00 31.9 °F 0.0 °F 29.56 in Calm     25 % 0.00 in
12:05 32.0 °F 0.9 °F 29.55 in Calm     26 % 0.00 in
12:10 32.2 °F 1.1 °F 29.55 in Calm     26 % 0.00 in
12:15 32.3 °F 2.0 °F 29.55 in Calm     27 % 0.00 in
12:25 32.5 °F 2.9 °F 29.54 in Calm     28 % 0.00 in
12:30 32.6 °F 3.8 °F 29.54 in Calm     29 % 0.00 in
12:40 32.8 °F 4.7 °F 29.53 in Calm     30 % 0.00 in
12:45 32.8 °F 5.4 °F 29.53 in Calm     31 % 0.00 in
12:50 32.9 °F 6.2 °F 29.53 in Calm     32 % 0.00 in
12:55 32.9 °F 6.9 °F 29.53 in Calm     33 % 0.00 in
13:00 33.0 °F 7.0 °F 29.53 in Calm     33 % 0.00 in
13:05 33.1 °F 6.4 °F 29.53 in Calm     32 % 0.00 in
13:15 33.3 °F 6.6 °F 29.52 in Calm     32 % 0.00 in
13:25 33.4 °F 8.0 °F 29.52 in Calm     34 % 0.00 in
13:30 33.4 °F 8.0 °F 29.52 in Calm     34 % 0.00 in
13:36 33.5 °F 8.1 °F 29.51 in Calm     34 % 0.00 in
13:40 33.5 °F 8.1 °F 29.51 in Calm     34 % 0.00 in
13:45 33.6 °F 8.8 °F 29.51 in Calm     35 % 0.00 in
13:50 33.6 °F 8.8 °F 29.51 in Calm     35 % 0.00 in
13:55 33.7 °F 9.5 °F 29.51 in Calm     36 % 0.00 in
14:00 33.8 °F 9.6 °F 29.51 in Calm     36 % 0.00 in
14:05 33.8 °F 10.2 °F 29.51 in Calm     37 % 0.00 in
14:10 33.8 °F 10.2 °F 29.51 in Calm     37 % 0.00 in
14:15 33.9 °F 10.3 °F 29.51 in Calm     37 % 0.00 in
14:20 34.0 °F 10.4 °F 29.50 in Calm     37 % 0.00 in
14:25 34.0 °F 11.0 °F 29.50 in Calm     38 % 0.00 in
14:35 34.1 °F 11.1 °F 29.50 in Calm     38 % 0.00 in
14:40 34.1 °F 11.7 °F 29.50 in Calm     39 % 0.00 in
14:45 34.1 °F 11.1 °F 29.50 in Calm     38 % 0.00 in
14:50 34.1 °F 11.1 °F 29.50 in Calm     38 % 0.00 in
14:55 34.2 °F 11.2 °F 29.51 in Calm     38 % 0.00 in
15:00 34.3 °F 10.1 °F 29.51 in Calm     36 % 0.00 in
15:05 34.4 °F 10.2 °F 29.51 in Calm     36 % 0.00 in
15:10 34.5 °F 10.2 °F 29.52 in Calm     36 % 0.00 in
15:15 34.7 °F 10.4 °F 29.52 in Calm     36 % 0.00 in
15:20 34.8 °F 11.1 °F 29.52 in Calm     37 % 0.00 in
15:25 34.9 °F 11.8 °F 29.53 in Calm   1.0 mph 38 % 0.00 in
15:30 35.0 °F 11.9 °F 29.53 in Calm   3.0 mph 38 % 0.00 in
15:35 35.1 °F 13.2 °F 29.54 in NNE 1.0 mph 3.0 mph 40 % 0.00 in
15:40 35.2 °F 15.4 °F 29.54 in North 1.0 mph 4.0 mph 44 % 0.00 in
15:50 35.2 °F 18.4 °F 29.55 in NW 1.0 mph 1.0 mph 50 % 0.00 in
15:55 35.1 °F 18.8 °F 29.55 in WNW 2.0 mph 2.0 mph 51 % 0.00 in
16:00 35.0 °F 19.6 °F 29.54 in NW 2.0 mph 2.0 mph 53 % 0.00 in
16:05 34.8 °F 18.9 °F 29.54 in NW 1.0 mph 2.0 mph 52 % 0.00 in
16:10 34.7 °F 18.9 °F 29.53 in Calm   1.0 mph 52 % 0.00 in
16:15 34.7 °F 18.9 °F 29.53 in Calm   1.0 mph 52 % 0.00 in
16:20 34.7 °F 18.9 °F 29.53 in Calm     52 % 0.00 in
16:25 34.7 °F 17.9 °F 29.53 in Calm     50 % 0.00 in
16:30 34.6 °F 18.3 °F 29.53 in Calm     51 % 0.00 in
16:35 34.5 °F 18.2 °F 29.53 in Calm     51 % 0.00 in
16:40 34.4 °F 18.1 °F 29.53 in Calm     51 % 0.00 in
16:45 34.3 °F 18.5 °F 29.53 in Calm     52 % 0.00 in
16:50 34.1 °F 17.8 °F 29.54 in Calm     51 % 0.00 in
16:55 34.1 °F 17.8 °F 29.53 in Calm     51 % 0.00 in
17:00 33.9 °F 17.2 °F 29.53 in Calm     50 % 0.00 in
17:05 33.7 °F 17.0 °F 29.54 in Calm     50 % 0.00 in
17:10 33.5 °F 16.4 °F 29.54 in Calm     49 % 0.00 in
17:15 33.3 °F 15.7 °F 29.54 in Calm     48 % 0.00 in
17:20 33.2 °F 15.6 °F 29.54 in Calm     48 % 0.00 in
17:25 32.9 °F 14.8 °F 29.55 in Calm     47 % 0.00 in
17:30 32.6 °F 14.1 °F 29.54 in Calm     46 % 0.00 in
17:35 32.4 °F 13.4 °F 29.55 in Calm     45 % 0.00 in
17:40 32.2 °F 12.7 °F 29.55 in Calm     44 % 0.00 in
Current Conditions
Compliments of Weather Underground - 2.5 mb

Script developed by  Jim McMurry - jmcmurry@mwt.net Adapted for the template by  Wim van der Kuil - Leuven-Template.eu

You find our weather info also at:

Weather Underground

Citizen Weather Observer Program (CWOP)

Equipment we use:

Weather-station
Davis Vantage Pro2

Weather-program
WeatherLink

Weather-server
DELL Optiplex 7020 Mini-Tower

Provider
Deluxe

Davis Vantage Pro2

WeatherLink

DELL Optiplex 7020 Mini-Tower

Deluxe

Weather Station EW0157 Visitors
Weather Station EW0157 Visitors